Charlevoix Municipal Airport


Codes: KCVX/
Name: Charlevoix Municipal Airport
City: Charlevoix
Country: United States
Elevation: 669 ft.

Photos at Charlevoix Municipal Airport


   Photos courtesy of SpottingLog. You can add your own sightings and photos by signing up for a free trial today.



No photos found.

Weather at Charlevoix Municipal Airport


Time (UTC)DescriptionTempratureWindCloud coverageVisibilityPressureHumidity
16-Jun-2024 09:00Broken Clouds17°C13 mph, SE75%10000m1017hPa53%
16-Jun-2024 12:00Broken Clouds17°C18 mph, SE83%10000m1017hPa55%
16-Jun-2024 15:00Overcast Clouds18°C22 mph, S92%10000m1014hPa59%
16-Jun-2024 18:00Overcast Clouds20°C22 mph, S99%10000m1012hPa64%
16-Jun-2024 21:00Overcast Clouds19°C13 mph, S100%10000m1010hPa74%
17-Jun-2024 00:00Light Rain19°C16 mph, S98%10000m1009hPa92%
17-Jun-2024 03:00Light Rain19°C18 mph, S100%10000m1008hPa95%
17-Jun-2024 06:00Moderate Rain19°C18 mph, S71%10000m1008hPa98%
17-Jun-2024 09:00Moderate Rain18°C16 mph, SW64%10000m1009hPa98%
17-Jun-2024 12:00Broken Clouds18°C13 mph, SW59%2832m1011hPa99%
17-Jun-2024 15:00Overcast Clouds18°C11 mph, SW87%1880m1012hPa98%
17-Jun-2024 18:00Overcast Clouds18°C9 mph, W93%1558m1013hPa97%
17-Jun-2024 21:00Light Rain19°C4 mph, N95%0m1012hPa93%
18-Jun-2024 00:00Light Rain17°C7 mph, N87%0m1013hPa99%
18-Jun-2024 03:00Light Rain18°C4 mph, N100%0m1014hPa98%
18-Jun-2024 06:00Light Rain18°C7 mph, S100%3281m1014hPa98%
18-Jun-2024 09:00Overcast Clouds19°C13 mph, S100%10000m1014hPa94%
18-Jun-2024 12:00Broken Clouds20°C16 mph, S83%10000m1015hPa93%
18-Jun-2024 15:00Scattered Clouds22°C16 mph, S38%10000m1015hPa83%
18-Jun-2024 18:00Scattered Clouds22°C11 mph, SW48%10000m1015hPa79%
18-Jun-2024 21:00Light Rain23°C11 mph, SW77%10000m1014hPa81%
19-Jun-2024 00:00Light Rain22°C18 mph, S86%10000m1015hPa82%
19-Jun-2024 03:00Overcast Clouds23°C20 mph, S100%10000m1015hPa79%
19-Jun-2024 06:00Broken Clouds21°C18 mph, S52%10000m1016hPa76%
19-Jun-2024 09:00Clear Sky21°C18 mph, S0%10000m1017hPa84%
19-Jun-2024 12:00Clear Sky20°C18 mph, S0%10000m1018hPa88%
19-Jun-2024 15:00Clear Sky21°C16 mph, SW3%10000m1019hPa85%
19-Jun-2024 18:00Clear Sky21°C18 mph, SW10%10000m1020hPa81%
19-Jun-2024 21:00Light Rain19°C18 mph, W12%2709m1021hPa92%
20-Jun-2024 00:00Light Rain16°C9 mph, N44%8631m1023hPa96%
20-Jun-2024 03:00Light Rain16°C9 mph, NE94%10000m1025hPa93%
20-Jun-2024 06:00Broken Clouds15°C7 mph, N83%10000m1025hPa91%
20-Jun-2024 09:00Light Rain15°C9 mph, N100%10000m1026hPa92%
20-Jun-2024 12:00Light Rain15°C9 mph, NE100%10000m1027hPa92%
20-Jun-2024 15:00Light Rain16°C7 mph, NE100%10000m1028hPa89%
20-Jun-2024 18:00Overcast Clouds17°C7 mph, NE100%10000m1028hPa81%
20-Jun-2024 21:00Overcast Clouds19°C7 mph, N100%10000m1026hPa74%
21-Jun-2024 00:00Overcast Clouds19°C7 mph, N95%10000m1025hPa75%
21-Jun-2024 03:00Overcast Clouds18°C9 mph, NE93%10000m1025hPa74%
21-Jun-2024 06:00Overcast Clouds17°C9 mph, NE96%10000m1025hPa66%